Tracking 31011 objects as of 12-Jul-2025
HD Live streaming from Space Station
objects crossing your sky now

COSMOS 2564 (GLONASS)

Track COSMOS 2564 (GLONASS) now!
COSMOS 2564 (GLONASS) is classified as:


NORAD ID: 54377
Int'l Code: 2022-161A
Perigee: 19,106.5 km
Apogee: 19,167.5 km
Inclination: 64.7 °
Period: 675.7 minutes
Semi major axis: 25508 km
RCS: Unknown
Launch date: November 28, 2022
Source: Commonwealth of Independent States (former USSR) (CIS)
Launch site: PLESETSK MISSILE AND SPACE COMPLEX (PKMTR)
SV: 761
Your satellite tracking list
Your tracking list is empty




NASA's NSSDC Master Catalog

Two Line Element Set (TLE):
1 54377U 22161A   25192.08923170  .00000097  00000-0  00000-0 0  9993
2 54377  64.7400 204.0341 0011953 225.3621 134.5871  2.13102076 20365
Source of the keplerian elements: AFSPC